GFSGBSN_850_dewp_093.txt.gz
Dewpoint
-12 -13 -13 -12 -13 -14 -19 -20 -20 -17 -22 -25 -27 -28 -28 -28 -29 -29 -29 -29 -28 -27 -24 -23 -22 -17 -8 -4 -10 -29 -28 -20 -26 -19 -8 -7 -2 -1 -2 -1 -1 -0 -3 -3 -4 -5 -5
-12 -10 -10 -9 -10 -14 -18 -18 -18 -16 -19 -24 -27 -27 -27 -29 -30 -30 -30 -30 -31 -30 -25 -24 -20 -10 1 -0 -24 -24 -23 -21 -13 -7 -7 -7 -4 -4 -5 -5 -3 -3 -2 -4 -4 -3 -3
-8 -3 -1 -4 -8 -12 -15 -15 -18 -21 -24 -26 -27 -27 -28 -29 -29 -29 -30 -31 -31 -30 -27 -22 -12 -2 2 -8 -24 -25 -19 -26 -23 -8 -2 -3 -4 -5 -5 -5 -6 -5 -5 -6 -3 -3 -2
-6 -10 -12 -12 -7 -5 -13 -15 -20 -23 -25 -25 -26 -27 -25 -25 -27 -28 -29 -30 -32 -28 -20 -7 -3 1 2 -11 -16 -21 -21 -22 -27 -24 -11 -12 -2 -3 -2 -2 -1 -1 -2 -1 -3 -6 -5
-12 -13 -15 -16 -14 -13 -13 -17 -23 -21 -20 -21 -19 -19 -19 -21 -24 -23 -22 -23 -25 -19 -3 0 -1 2 1 -6 -4 0 0 -3 -11 -24 -11 -15 -4 -1 -2 -0 -3 0 0 1 0 -3 -4
-6 -5 -8 -11 -14 -13 -15 -16 -13 -16 -17 -16 -15 -15 -15 -18 -20 -15 -15 -15 -14 -6 1 -1 2 2 -5 -6 -2 -3 -0 -2 -2 -8 -8 -6 -6 -5 -5 -2 -1 -0 2 1 0 -2 -3
-4 -10 -13 -15 -12 -9 -11 -9 -8 -14 -13 -14 -15 -15 -16 -15 -16 -12 -9 -14 -3 -3 -5 -3 -4 -1 -4 -11 -6 -9 -0 -3 -2 -5 -8 -7 -5 -4 -5 -4 -4 -2 -0 0 -1 -3 -2
-9 -6 -4 -4 -7 -13 -13 -8 -5 -7 -5 -12 -13 -14 -14 -11 -13 -11 -7 -4 -3 -2 -1 -3 -4 -2 -4 -8 -3 -8 -11 -3 -4 -2 -7 -6 -4 -6 -6 -5 -4 -3 -2 -1 -1 -2 -2
-5 -8 -9 -9 -13 -12 -15 -12 -7 -8 -9 -11 -11 -12 -12 -10 -14 -7 -7 -6 -5 -3 -1 -2 -4 -2 -2 -1 -1 -3 -6 -3 -3 1 -4 -8 -7 -7 -6 -6 -4 -4 -3 -2 -3 -3 -2
-4 -9 -8 -8 -14 -13 -10 -9 -7 -7 -9 -11 -10 -12 -12 -10 -9 -10 -8 -7 -7 -3 0 -3 -2 -2 -2 -1 0 -2 -8 -5 -8 1 -0 -2 -7 -6 -5 -5 -6 -4 -6 -5 -4 -2 -1
-3 -3 -2 -7 -11 -8 -10 -12 -12 -12 -12 -10 -11 -10 -11 -10 -8 -8 -7 -8 -6 -0 -2 -9 -4 -1 -2 -2 -4 -2 -4 -6 -7 -0 -1 -0 0 -4 -4 -6 -7 -6 -5 -5 2 2 4
-2 -2 -3 -6 -4 -4 -10 -7 -11 -12 -11 -11 -11 -11 -10 -8 -10 -8 -9 -8 -3 -1 -3 -6 -4 -2 -1 -3 -4 -3 -4 -5 -7 -6 -4 -2 -5 -3 -4 3 -6 2 3 4 5 5 4
-2 -2 -2 -2 -4 -8 -7 -7 -11 -10 -7 -10 -11 -10 -10 -8 -6 -8 -9 -6 -2 -2 -9 -5 -1 -3 -0 -0 -4 -4 -4 -4 -4 -2 -3 -5 -6 1 3 4 3 1 2 5 3 5 -0
-3 -3 -5 -3 -6 -3 -6 -8 -10 -9 -8 -10 -12 -10 -9 -6 -3 -6 -6 -3 -3 -10 -6 -3 -2 -1 2 -2 -2 -4 -3 -5 -6 -5 -4 -4 -2 -0 1 3 4 2 1 2 1 4 5
-3 -3 -3 -3 -4 -5 -8 -8 -10 -9 -8 -8 -11 -11 -9 -5 -6 -4 -4 -3 -7 -3 -2 -2 -2 1 4 -3 -3 -4 -4 -5 -6 -6 -5 -4 -5 -0 1 2 1 4 3 1 4 4 4
-3 -3 -3 -5 -4 -5 -4 -6 -10 -9 -6 -6 -8 -9 -8 -7 -4 -3 -3 -4 -6 -8 -9 -3 2 2 4 1 -2 -0 1 1 -0 -5 -5 -4 2 1 2 0 2 1 2 4 5 6 6
-3 -4 -3 -3 -6 -4 -5 -7 -10 -6 -5 -6 -7 -7 -8 -4 -3 -2 -2 -5 -6 -8 -6 1 0 -0 3 3 1 4 3 2 -1 -1 -2 0 2 3 1 1 4 3 4 5 4 4 5
-3 -4 -4 -6 -8 -5 -5 -8 -7 -5 -4 -5 -5 -6 -6 -3 -3 -2 -2 -3 -6 -7 -7 -5 -1 1 2 2 3 4 3 1 -1 0 0 0 3 4 4 2 1 2 4 3 3 6 5
-4 -4 -6 -4 -6 -6 -6 -7 -8 -5 -4 -4 -4 -6 -6 -3 -3 -3 -4 -4 -5 -6 -6 -7 -5 -1 1 3 4 5 3 0 0 0 -1 -0 2 7 6 2 -0 3 4 5 5 5 5
-4 -4 -6 -4 -7 -5 -6 -7 -8 -5 -3 -4 -5 -6 -6 -3 -3 -3 -3 -5 -2 -3 -5 -4 -0 1 2 3 3 3 4 -0 -1 2 1 1 1 0 3 3 2 1 0 3 4 5 3
-5 -4 -5 -4 -6 -5 -6 -6 -9 -4 -3 -4 -4 -6 -4 -4 -5 -4 -4 -3 -2 -1 1 1 2 2 3 3 3 3 1 1 -1 -1 1 0 2 1 0 1 2 1 0 0 3 3 4
-5 -5 -4 -4 -5 -5 -7 -8 -8 -4 -3 -3 -4 -5 -4 -4 -4 -5 -5 -3 -3 -4 0 1 -0 0 1 2 2 2 0 1 1 -1 -0 -1 3 0 -1 -0 -1 -1 -3 -1 -0 -0 1
-5 -5 -5 -5 -5 -7 -5 -6 -7 -4 -3 -4 -3 -4 -4 -5 -6 -5 -4 -5 -5 -5 -4 -2 -3 -1 0 1 1 1 0 -0 -0 1 -0 1 0 -2 -1 -0 -2 -4 -2 -6 -5 -4 1
-5 -5 -5 -5 -7 -5 -3 -6 -9 -5 -2 -3 -4 -3 -4 -5 -6 -7 -6 -6 -5 -6 -3 -3 -1 -0 -1 -1 -1 -2 0 0 0 0 0 1 0 1 0 1 -1 -6 -5 -5 -3 -3 2
-5 -5 -5 -6 -5 -3 -4 -6 -5 -3 -2 -2 -2 -3 -3 -4 -5 -6 -5 -6 -6 -4 -3 -2 -2 -3 -1 -1 -1 -2 -2 -3 -2 1 -0 -1 0 2 0 -1 -3 -5 0 -0 -1 -3 3
-6 -6 -6 -5 -4 -4 -4 -7 -4 -3 -3 -2 -3 -2 -3 -4 -6 -5 -5 -4 -3 -2 -4 -2 -5 -3 -2 -1 -0 0 0 -0 -1 0 -0 -0 -0 0 1 -1 -1 -2 -0 1 1 -5 2
-6 -6 -6 -6 -4 -4 -5 -8 -5 -4 -4 -2 -1 -2 -3 -3 -5 -6 -5 -4 -5 -4 -4 -3 -4 -3 -2 -0 1 1 0 -1 -1 -1 1 2 1 1 1 -0 -1 2 2 0 -2 0 1
-6 -6 -6 -7 -5 -4 -5 -9 -6 -5 -4 -2 -2 -3 -2 -3 -5 -6 -7 -8 -8 -6 -5 -5 -3 -4 -2 -0 -0 1 1 0 0 -0 2 1 1 2 0 1 2 1 1 2 3 2 2
-7 -6 -8 -6 -3 -5 -6 -10 -8 -6 -5 -3 -2 -2 -2 -2 -3 -4 -4 -5 -5 -6 -3 -4 -2 -3 -1 -2 -2 -1 -1 -1 -0 1 -0 2 3 2 2 3 1 0 0 -1 -0 -1 -0

GFSGBSN_850_dewp_099.txt.gz
Dewpoint
-16 -20 -18 -19 -22 -23 -27 -27 -30 -32 -32 -32 -32 -32 -32 -32 -32 -32 -32 -32 -33 -33 -32 -32 -31 -30 -15 -8 -10 -13 -12 -12 -14 -14 -9 -6 -4 -6 -7 -7 -5 -5 -5 -5 -5 -6 -6
-15 -17 -17 -21 -21 -23 -23 -27 -30 -31 -32 -32 -32 -32 -31 -32 -32 -32 -32 -32 -33 -34 -32 -32 -30 -28 -1 -5 -13 -13 -13 -12 -12 -14 -15 -8 -8 -6 -7 -8 -5 -5 -5 -4 -5 -5 -6
-12 -17 -18 -16 -16 -20 -24 -28 -31 -32 -32 -32 -31 -31 -31 -31 -32 -32 -32 -34 -35 -34 -32 -31 -26 -12 -0 -7 -12 -13 -13 -13 -13 -14 -13 -7 -8 -8 -6 -5 -7 -6 -3 -3 -4 -4 -4
-10 -15 -17 -15 -14 -17 -26 -28 -31 -31 -31 -31 -30 -31 -32 -32 -32 -33 -34 -34 -31 -28 -27 -26 -15 2 1 -8 -9 -8 -9 -9 -10 -9 -11 -10 -5 -6 -7 -6 -6 -5 -4 -1 -4 -5 -5
-11 -14 -15 -15 -18 -20 -26 -29 -29 -30 -31 -30 -31 -32 -32 -32 -33 -31 -30 -25 -19 -15 -13 -9 -0 1 -1 -6 -6 -6 -3 -4 -4 -5 -7 -11 -9 -5 -4 -3 -2 -4 -2 -2 -3 -6 -5
-9 -12 -16 -20 -22 -24 -27 -29 -28 -29 -29 -31 -31 -32 -32 -33 -30 -25 -22 -11 -11 -9 -1 -3 -1 -0 -2 -6 -12 -7 -5 -4 -2 -1 -3 -9 -12 -10 -7 -2 1 -1 -1 -2 -2 -4 -4
-11 -15 -16 -16 -24 -25 -26 -27 -28 -29 -30 -31 -32 -32 -33 -27 -21 -19 -13 -8 -8 -9 -5 -8 -10 -8 -11 -14 -12 -13 -16 -16 -9 -3 -2 -7 -10 -10 -9 -4 -4 -3 -2 1 -2 -4 -2
-8 -11 -14 -20 -23 -24 -25 -28 -29 -30 -31 -32 -32 -32 -25 -19 -17 -8 -6 -5 -5 -4 -4 -7 -9 -10 -10 -9 -7 -6 -5 -8 -14 -10 -4 -7 -10 -14 -10 -8 -4 -2 5 4 0 -3 -2
-3 -5 -9 -18 -19 -23 -26 -28 -30 -31 -31 -32 -31 -23 -18 -17 -8 -5 -6 -8 -7 -4 -4 -9 -12 -9 -4 -2 -3 -4 -4 -7 -11 -9 -7 -4 -12 -15 -12 -9 -6 -0 3 1 -1 -4 -2
-3 -6 -7 -13 -18 -23 -25 -29 -31 -31 -31 -30 -22 -18 -15 -17 -5 -5 -9 -6 -5 -3 -3 -12 -12 -3 -2 -3 -3 -7 -5 -7 -11 -8 -4 -5 -14 -11 -10 -8 -8 -3 -3 -2 -3 1 3
-3 -4 -6 -11 -15 -20 -25 -29 -29 -30 -31 -23 -17 -16 -15 -6 -2 -5 -6 -4 -3 -2 -3 -16 -8 -3 -6 -11 -10 -8 -3 -6 -9 -9 -6 -3 -12 -10 -8 -7 -7 -5 -6 -3 -2 -3 -3
-2 -4 -3 -7 -12 -13 -24 -28 -27 -30 -26 -18 -15 -15 -15 -6 -4 -4 -3 -3 -2 0 -5 -17 -12 -12 -13 -13 -6 -4 -3 -4 -10 -11 -9 -5 -9 -9 -9 -8 -8 -6 -6 -7 -6 -6 -2
-3 -2 -2 -6 -10 -16 -22 -24 -26 -28 -19 -13 -13 -14 -14 -3 -3 -3 -2 -3 -5 -9 -20 -18 -14 -14 -13 1 -0 -1 -2 -1 -8 -8 -2 0 2 -7 -9 -5 -5 -5 -4 1 1 1 1
-2 -2 -2 -5 -11 -13 -14 -20 -24 -23 -17 -12 -12 -14 -5 -3 -3 -1 -2 -4 -7 -13 -13 -15 -12 -12 -5 0 -1 2 -1 -4 -9 -7 -0 4 5 -4 -4 -4 -2 -4 -4 4 4 5 2
-3 -2 -3 -5 -8 -6 -15 -15 -19 -21 -14 -11 -8 -3 -4 -4 -3 -1 -4 -5 -10 -11 -12 -10 -10 -7 -1 -2 0 3 -0 -6 -9 -9 4 3 -2 -2 -3 -5 -5 -3 -1 -1 4 1 1
-3 -3 -3 -4 -5 -6 -9 -11 -16 -18 -12 -10 -3 -5 -4 -12 -2 -2 -3 -6 -8 -10 -10 -9 -4 -1 1 -1 2 2 -7 -9 -9 -6 -3 -5 2 -5 -3 -2 -4 -3 -4 2 1 3 -1
-3 -2 -3 -6 -4 -7 -5 -9 -16 -13 -10 -9 -2 -6 -4 -11 -0 -3 -0 -6 -7 -9 -9 -7 -6 -4 -1 2 1 2 4 -10 -7 -9 -8 -7 -0 -4 -3 -0 -1 -1 1 -1 -2 0 5
-3 -3 -4 -4 -3 -7 -5 -9 -14 -12 -9 -6 -3 -3 -6 -1 -1 -5 -4 -7 -7 -8 -7 -7 -7 -0 1 2 2 4 6 5 -2 -3 -7 -6 -2 -0 -1 -5 -0 -4 -0 -2 3 2 0
-3 -4 -4 -4 -8 -7 -5 -8 -12 -11 -8 -2 -3 -6 -3 -1 -1 -3 -6 -6 -6 -5 -3 -2 -0 -0 1 3 4 4 4 2 1 1 -1 -0 -0 0 2 -0 1 1 1 -3 1 2 4
-4 -4 -5 -4 -3 -5 -6 -7 -12 -10 -7 -2 -3 -1 -6 -4 -3 -4 -4 -4 -3 -5 -3 -0 2 1 2 2 1 4 4 2 0 1 3 2 1 -2 1 0 -2 2 -1 -1 -0 1 1
-5 -3 -4 -6 -4 -6 -5 -6 -11 -8 -6 -2 -3 -2 -4 -2 -4 -5 -5 -4 -2 -3 -5 -4 -2 -3 -1 2 1 2 1 2 1 0 2 3 6 5 -0 -4 -3 -0 1 1 1 -2 0
-5 -4 -5 -5 -4 -5 -4 -7 -9 -7 -5 -1 -5 -5 -6 -6 -7 -6 -5 -3 -5 -6 -4 -3 -2 -4 -3 -2 -1 1 -1 1 4 1 2 1 0 -1 -2 -3 -4 -4 -6 -7 -6 -5 -4
-3 -2 -5 -5 -4 -5 -5 -7 -9 -7 -3 -2 -3 -4 -4 -6 -9 -7 -7 -9 -8 -8 -6 -5 -4 -4 -3 -3 -3 -2 -1 -1 -0 -0 0 -1 -2 -1 -2 -7 -7 -2 -5 -7 -5 -4 -3
-3 -4 -5 -5 -5 -6 -6 -5 -8 -7 -4 -2 -3 -3 -4 -3 -8 -10 -10 -10 -10 -9 -5 -5 -5 -4 -5 -3 -3 -4 -1 -2 -4 -2 -2 -2 -6 -4 -3 -6 -2 -3 -5 -5 -2 -1 -1
-4 -5 -5 -5 -5 -6 -6 -5 -6 -8 -4 -2 -3 -2 -3 -3 -8 -9 -9 -9 -8 -9 -7 -7 -6 -5 -3 -3 -3 -5 -3 -2 -5 -4 -4 -3 -3 -4 -4 -3 -3 -3 -2 -1 -2 3 -1
-6 -6 -6 -5 -5 -6 -6 -4 -3 -9 -6 -3 -4 -3 -2 -2 -5 -8 -7 -8 -8 -8 -8 -8 -6 -4 -3 -3 -3 -3 -2 -3 -4 -5 -5 -4 -4 -3 -3 -5 -0 4 -1 -2 -3 3 0
-5 -5 -6 -7 -6 -7 -5 -4 -5 -8 -4 -3 -2 -4 -2 -2 -5 -5 -6 -5 -7 -8 -8 -8 -5 -4 -3 -1 0 -2 -1 -5 -1 -3 -3 -2 -1 -0 -2 -2 2 1 -1 -2 1 4 1
-4 -5 -6 -6 -7 -6 -3 -4 -7 -7 -5 -4 -2 -2 -2 -2 -4 -4 -4 -5 -5 -7 -5 -6 -4 -4 -2 -0 -2 -1 0 -2 -1 -3 -1 1 3 1 1 -1 3 -1 -1 2 0 -1 0
-6 -7 -7 -6 -7 -6 -4 -4 -5 -10 -5 -4 -2 -3 -2 -2 -3 -2 -2 -2 -3 -4 -4 -6 -4 -4 -3 -2 -2 -1 0 -1 -2 4 -3 2 1 2 2 2 -0 -1 -1 -2 -2 -2 -2

GFSGBSN_850_dewp_105.txt.gz
Dewpoint
1 -1 -8 -11 -14 -17 -22 -26 -29 -29 -32 -31 -31 -31 -31 -32 -31 -32 -31 -31 -31 -32 -32 -32 -30 -29 -28 -4 -21 -26 -16 -13 -13 -14 -14 -14 -14 -15 -8 -4 -4 -7 -11 -11 -7 -4 -4
1 -2 -8 -11 -15 -16 -20 -25 -26 -29 -31 -31 -32 -32 -32 -32 -32 -32 -31 -31 -32 -31 -30 -25 -24 -21 -16 -2 -26 -16 -10 -8 -8 -10 -13 -12 -10 -13 -15 -13 -8 -5 -6 -9 -9 -7 -4
2 -1 -8 -13 -18 -20 -22 -24 -25 -29 -31 -31 -32 -32 -32 -32 -32 -32 -31 -32 -31 -27 -21 -17 -17 -11 -7 -17 -17 -13 -14 -11 -11 -10 -10 -14 -14 -14 -15 -12 -12 -10 -7 -7 -6 -8 -8
3 -2 -7 -11 -15 -19 -22 -24 -26 -29 -30 -31 -31 -32 -33 -32 -32 -31 -31 -31 -30 -19 -15 -12 -8 -5 -3 -12 -4 -6 -7 -7 -9 -9 -10 -10 -11 -11 -13 -14 -12 -8 -7 -6 -8 -6 -8
3 -2 -6 -7 -8 -15 -18 -21 -27 -29 -30 -31 -32 -33 -33 -32 -31 -30 -29 -25 -21 -15 -11 -7 -6 1 1 -2 -3 -6 -7 -10 -11 -12 -7 -7 -9 -11 -11 -10 -9 -8 -3 -6 -6 -6 -6
3 -2 -4 -8 -12 -12 -15 -18 -26 -28 -30 -31 -33 -33 -32 -32 -29 -25 -16 -19 -23 -11 -6 -8 -4 -0 -3 -4 -9 -11 -12 -12 -12 -12 -12 -11 -7 -6 -9 -8 -6 -7 -3 -4 -5 -6 -5
3 -2 -4 -8 -9 -12 -15 -18 -25 -28 -30 -32 -33 -33 -32 -29 -24 -11 -9 -19 -12 -10 -12 -9 -12 -10 -11 -8 -6 -8 -10 -9 -9 -9 -9 -12 -12 -6 -0 -8 -8 -9 -5 -3 -6 -7 1
2 0 -3 -5 -8 -13 -15 -18 -23 -27 -30 -31 -33 -32 -31 -27 -16 -7 -6 -7 -7 -7 -4 -8 -8 -8 -9 -7 -6 -11 -15 -7 -5 -5 -4 -2 -8 -13 -12 -2 -5 -9 -7 -6 -7 -5 5
2 0 -2 -4 -8 -13 -15 -17 -22 -26 -30 -30 -31 -32 -27 -25 -11 -7 -5 -7 -5 -4 -4 -6 -10 -11 -5 -8 -7 -10 -15 -8 -6 -1 -3 -1 -0 -9 -14 -6 1 -4 -9 -10 -9 4 6
1 -0 0 -4 -8 -14 -15 -18 -21 -25 -30 -30 -32 -28 -25 -18 -9 -6 -6 -7 -4 -2 -1 -11 -16 -10 -11 -12 -12 -14 -13 -5 -4 -3 -2 -0 -2 -2 -6 -3 2 -6 -12 -13 -11 5 8
1 1 -0 -3 -11 -11 -14 -17 -19 -27 -30 -31 -31 -23 -18 -9 -6 -3 -5 -8 -1 -1 -2 -14 -15 -12 -11 -10 -8 -6 -5 -5 -0 0 -1 2 -4 -6 -9 -12 -2 -1 -10 -10 -9 6 6
1 1 -0 -7 -7 -12 -13 -15 -19 -27 -29 -31 -23 -20 -16 -7 -2 -3 -8 -1 0 0 -3 -11 -12 -10 -8 -6 -4 -4 -4 -2 -2 -0 -0 2 -7 -10 -3 -2 -2 -2 2 4 5 4 6
0 -0 -3 -5 -10 -9 -12 -15 -22 -25 -29 -25 -17 -20 -13 -7 -13 -16 -5 -1 0 -6 -11 -10 -9 -9 -7 -4 -2 -2 -0 1 3 2 2 -1 -9 -12 -3 -0 0 -0 1 6 8 6 6
-0 -1 -3 -3 -3 -10 -14 -18 -24 -27 -29 -17 -16 -18 -7 -11 -17 -8 0 0 -4 -8 -8 -10 -9 -8 -3 -2 -1 -1 -0 3 1 1 0 -6 -0 -3 -4 -2 2 1 2 5 6 6 4
-0 -2 -2 -2 -2 -3 -15 -19 -23 -27 -22 -14 -5 -3 -3 -11 -16 -3 1 -2 -6 -7 -9 -7 -6 -4 -2 -2 -0 0 -1 3 1 0 -2 3 4 -1 1 0 -1 -0 2 1 6 8 6
-1 -2 -2 -2 -2 -5 -12 -17 -21 -26 -17 -12 -1 -1 -2 -4 -6 -2 -0 -3 -7 -9 -8 -6 -1 -3 0 -0 1 1 -0 -2 4 2 2 3 4 2 -0 -4 -4 -4 -1 2 6 8 9
-1 -2 -1 -2 -3 -3 -4 -10 -18 -23 -14 -12 -5 -1 -2 -12 -2 0 -1 -5 -6 -8 -6 -3 -2 0 -0 2 1 2 1 -1 0 3 3 3 5 4 1 4 -0 0 6 5 6 6 8
-1 -1 -2 -2 -3 -2 -5 -8 -16 -16 -12 -3 -1 -1 -5 -3 0 0 -2 -6 -7 -6 -6 -4 -2 -1 1 2 2 2 2 1 0 3 5 3 4 4 2 2 1 2 3 5 7 9 8
-3 -3 -3 -3 -4 -3 -4 -8 -18 -14 -7 0 -1 -1 -5 -1 -2 -3 -5 -5 -6 -5 -5 -4 -1 -1 1 3 1 1 1 -2 0 2 4 4 3 5 7 3 5 5 3 3 4 6 8
-3 -2 -2 -3 -3 -4 -4 -7 -15 -12 -3 -1 -1 -1 -2 -3 -4 -3 -4 -3 -3 -6 -7 -6 -4 -3 -1 2 -0 -0 0 -1 0 1 2 3 4 5 6 7 5 6 5 6 7 7 7
-2 -2 -2 -3 -4 -6 -6 -7 -16 -12 -7 -1 -2 -2 -3 -2 -1 -4 -5 -4 -3 -3 -8 -7 -5 -4 -3 3 -2 -1 -2 -0 1 1 2 3 5 5 6 5 4 6 6 6 5 6 8
-3 -3 -3 -4 -4 -4 -6 -8 -15 -9 -3 -2 -5 -1 -5 -7 -6 -6 -4 -4 -5 -7 -7 -5 -5 -5 -4 -2 -2 -1 -2 1 3 3 3 3 5 5 7 4 4 6 3 1 4 6 6
-3 -3 -4 -6 -3 -4 -5 -6 -13 -6 -2 -3 -4 -5 -4 -3 -5 -5 -5 -9 -8 -8 -8 -9 -8 -4 -4 -3 -4 -4 -3 -1 1 2 2 3 4 5 6 1 3 6 3 2 2 2 3
-3 -4 -3 -6 -5 -4 -4 -7 -11 -4 -1 -2 -4 -3 -4 -2 -4 -8 -9 -10 -8 -8 -6 -8 -8 -4 -5 -6 -4 -3 -1 1 1 -0 -1 -0 1 3 1 2 6 3 1 2 2 1 1
-5 -4 -3 -4 -5 -4 -5 -7 -10 -3 -2 -2 -4 -4 -1 -3 -4 -6 -9 -6 -6 -8 -7 -7 -6 -7 -4 -3 -0 0 1 1 -2 -2 -3 -3 1 3 4 5 4 1 -1 0 3 2 -0
-4 -4 -3 -4 -5 -5 -6 -6 -10 -5 -3 -2 -1 -3 -3 -2 -2 -3 -7 -6 -5 -4 -4 -5 -7 -5 -4 -2 0 3 2 -1 3 2 -3 -1 1 3 3 4 5 0 -2 -2 -1 1 0
-4 -3 -4 -5 -6 -5 -5 -6 -7 -9 -5 -3 -2 -3 -3 -4 -4 -3 -3 -3 -5 -5 -4 -4 -4 -3 -4 -1 1 2 3 -2 2 2 2 1 2 3 3 4 1 -1 -2 -3 2 1 -0
-3 -4 -4 -5 -5 -5 -6 -6 -4 -8 -7 -3 -2 -4 -3 -3 -4 -3 -2 -2 -2 -4 -3 -4 -3 -3 -2 -0 -0 -0 1 0 2 1 1 2 3 2 2 2 1 -2 -2 -1 -0 -1 -1
-7 -6 -6 -5 -5 -5 -7 -5 -5 -8 -7 -3 -2 -3 -4 -5 -5 -3 -5 -8 -4 -5 -3 -2 -3 -2 -1 -2 -2 -1 0 0 1 3 -1 2 1 1 1 0 -1 -2 -1 -2 -2 -2 -1

GFSGBSN_850_dewp_108.txt.gz
Dewpoint
8 6 3 -0 -7 -12 -18 -22 -28 -30 -30 -33 -32 -31 -31 -32 -32 -32 -32 -32 -32 -31 -31 -28 -22 -21 -17 -19 -28 -20 -15 -13 -10 -8 -9 -10 -12 -13 -9 -1 -3 -8 -10 -12 -12 -12 -9
8 8 4 2 1 -12 -14 -23 -29 -31 -31 -32 -31 -32 -32 -32 -33 -33 -32 -32 -31 -31 -27 -18 -13 -14 -11 -9 -21 -17 -13 -9 -9 -8 -6 -7 -10 -13 -13 -14 -12 -8 -8 -6 -5 -7 -10
9 8 5 4 -1 -10 -13 -23 -27 -29 -29 -32 -32 -32 -32 -33 -33 -33 -32 -31 -29 -29 -21 -14 -12 -9 -5 -13 -5 -4 -4 -5 -7 -9 -10 -10 -9 -11 -11 -12 -14 -13 -10 -11 -11 -9 -6
9 8 7 4 -2 -8 -18 -20 -22 -27 -30 -32 -31 -32 -33 -33 -33 -32 -31 -30 -25 -24 -19 -12 -10 -6 -6 -4 -2 -7 -7 -6 -7 -8 -10 -11 -11 -8 -9 -10 -11 -11 -11 -10 -11 -9 -9
8 8 7 5 0 -10 -17 -15 -23 -23 -24 -30 -31 -32 -33 -33 -32 -30 -29 -26 -25 -26 -15 -11 -8 -3 -2 -9 -5 -9 -12 -12 -10 -9 -9 -10 -12 -8 -7 -8 -8 -10 -9 -10 -11 -10 -9
8 7 8 6 1 -11 -12 -15 -19 -22 -26 -29 -30 -32 -34 -32 -29 -25 -23 -22 -24 -14 -9 -13 -4 -1 -9 -10 -6 -13 -11 -13 -12 -9 -8 -9 -11 -10 -8 -6 -3 -6 -9 -10 -7 -7 -8
8 6 5 4 -0 -10 -11 -11 -16 -23 -27 -28 -29 -32 -33 -31 -23 -13 -14 -25 -18 -14 -13 -10 -10 -9 -13 -7 -6 -8 -10 -12 -12 -6 -8 -5 -4 -6 -10 -9 -2 -3 -7 -8 -10 -11 -6
9 5 5 4 -2 -7 -6 -8 -16 -23 -24 -26 -30 -32 -31 -27 -15 -6 -6 -9 -5 -7 -5 -10 -11 -9 -11 -7 -8 -8 -10 -11 -9 -3 -1 -3 -2 -3 -2 -3 -7 -6 -1 -1 -8 -11 -9
8 6 4 2 -0 -4 -5 -6 -18 -22 -23 -25 -27 -29 -30 -26 -10 -6 -4 -5 -5 -3 -3 -7 -10 -10 -9 -9 -8 -9 -10 -8 -9 -6 -5 -1 -4 -6 -2 -1 -1 -10 -9 -1 -1 -9 -8
7 5 3 2 1 -4 -2 -11 -17 -23 -23 -24 -24 -29 -26 -21 -10 -8 -6 -6 -5 -2 -2 -9 -12 -10 -11 -10 -9 -8 -6 -5 -4 -3 -4 -4 -5 -5 -2 -1 -1 -2 -7 -0 1 -3 -4
6 5 3 2 1 0 -4 -10 -19 -20 -22 -20 -25 -23 -22 -14 -8 -5 -8 -6 -2 -1 -6 -11 -12 -12 -10 -9 -8 -5 -4 -4 -3 -3 -2 -1 -3 -2 -0 -1 -2 -2 -6 -1 -2 -6 -3
5 4 3 1 1 -0 -2 -14 -18 -19 -19 -22 -22 -23 -19 -11 -5 -5 -9 -3 -1 -5 -7 -8 -11 -10 -8 -8 -5 -4 -3 -3 -2 -1 -1 -0 -2 -1 -2 -6 -6 -4 0 0 2 -1 -1
4 3 2 1 1 0 -7 -14 -17 -18 -20 -21 -24 -21 -22 -11 -15 -13 -3 -1 -4 -6 -9 -8 -8 -8 -7 -5 -2 -2 -1 1 3 3 0 -1 -0 -6 -4 -2 -4 -1 2 3 3 5 4
4 2 1 1 0 -2 -6 -14 -15 -17 -21 -25 -22 -21 -15 -18 -15 -9 -0 -2 -7 -7 -8 -9 -7 -6 -4 -3 -1 -1 -1 1 2 2 2 -0 0 -3 0 -1 -3 2 1 2 7 7 5
3 1 1 0 -0 -3 -9 -11 -14 -21 -23 -23 -16 -13 -12 -10 -10 -6 0 -3 -6 -7 -8 -5 -5 -2 -2 -3 -0 0 -0 -0 2 2 5 5 2 -3 -4 -4 -1 0 2 0 4 6 4
2 1 -0 -0 -1 -2 -10 -12 -18 -21 -21 -14 -5 -3 -5 -5 -5 -1 -2 -5 -7 -8 -6 -5 -2 -3 -1 -1 1 0 -0 -3 0 -0 2 5 4 -0 1 1 1 1 1 2 4 3 4
0 -0 -0 -1 -2 -2 -6 -14 -19 -23 -19 -11 -3 -2 -4 -3 -3 -0 -2 -5 -6 -7 -5 -3 -1 -0 -0 1 1 1 1 -2 -2 0 2 5 4 4 2 4 4 2 4 5 4 6 7
-0 -1 -1 -2 -1 -2 -4 -14 -18 -24 -15 -13 -2 -1 -7 -6 -1 -2 -3 -6 -6 -5 -6 -4 -3 -1 0 0 3 0 1 0 -3 -0 3 2 5 6 4 3 4 3 4 4 5 6 7
-1 -1 -2 -2 -2 -2 -2 -11 -18 -17 -12 -2 -1 -2 -6 -0 -3 -4 -5 -4 -5 -5 -6 -4 -2 -1 -1 0 1 -0 -0 -2 -3 -1 3 3 5 5 4 5 4 5 3 3 6 6 8
-1 -1 -2 -2 -2 -2 -2 -9 -16 -13 -8 -1 -1 -1 -2 -1 -4 -4 -4 -3 -3 -6 -5 -6 -4 -5 -2 -1 1 -1 -2 -2 -3 -0 2 3 4 4 5 4 3 6 6 6 6 8 7
-1 -2 -3 -3 -3 -3 -3 -11 -14 -12 -3 -2 -1 -1 -2 -2 -2 -4 -6 -4 -3 -4 -8 -8 -6 -5 -3 -2 -2 -2 -3 -3 -1 0 2 3 5 4 6 5 6 5 6 6 7 6 6
-2 -3 -2 -3 -3 -3 -4 -11 -14 -11 -4 -1 -3 -1 -6 -6 -3 -5 -4 -4 -3 -8 -9 -7 -6 -6 -5 -3 -2 -2 -3 -1 1 2 2 2 5 4 5 5 4 5 4 4 5 5 5
-2 -2 -3 -4 -4 -4 -8 -10 -14 -9 -2 -3 -4 -5 -4 -3 -5 -5 -4 -8 -9 -8 -8 -9 -7 -5 -4 -4 -5 -5 -4 -3 -1 0 2 2 3 5 6 4 4 3 3 3 3 3 3
-3 -3 -4 -4 -3 -5 -5 -12 -11 -3 -2 -3 -4 -4 -4 -4 -4 -5 -8 -10 -6 -5 -7 -5 -7 -4 -6 -4 -6 -4 -1 -1 -0 1 1 2 1 3 4 5 3 3 1 1 1 0 0
-4 -4 -5 -3 -4 -4 -5 -12 -7 -1 -2 -4 -4 -4 -3 -4 -3 -4 -5 -5 -6 -6 -5 -4 -6 -4 -4 -6 -1 0 0 -1 0 -0 -1 -0 1 5 6 5 4 1 -1 0 2 1 -0
-3 -3 -4 -5 -4 -4 -6 -12 -7 -4 -3 -4 -5 -3 -3 -4 -3 -3 -4 -5 -5 -5 -5 -4 -8 -5 -4 -2 0 3 4 1 3 1 -2 -0 0 4 5 3 4 1 -2 -3 -2 1 -0
-4 -4 -3 -4 -5 -5 -7 -10 -7 -3 -2 -4 -4 -4 -5 -4 -3 -3 -4 -4 -4 -5 -4 -4 -4 -3 -3 -2 0 1 2 -0 4 3 2 1 2 2 3 2 1 -2 -2 -2 1 0 -1
-3 -3 -4 -5 -5 -5 -7 -8 -10 -4 -3 -3 -4 -5 -5 -5 -4 -4 -3 -3 -3 -4 -3 -4 -4 -3 -3 -2 -1 -0 1 0 2 1 1 2 3 1 1 0 0 -2 -2 -1 -1 -1 -2
-3 -3 -4 -5 -5 -6 -7 -7 -12 -8 -5 -3 -4 -5 -6 -6 -5 -4 -5 -7 -7 -5 -4 -2 -2 -1 -2 -3 -3 -1 -0 -0 2 2 1 2 0 0 0 -0 -1 -1 -2 -2 -1 -2 -1